Papa, Hungary

8:12 AM CET on March 24, 2017 (GMT +0100)
Papa

Weather History for LHPA - March, 2013

Change the Weather History Date:

Saturday, March 16, 2013

  Actual Average Record
Temperature  
Mean Temperature 26 °F -  
Max Temperature 33 °F - - ()
Min Temperature 19 °F - - ()
Degree Days  
Heating Degree Days 39    
Moisture  
Dew Point 17 °F    
Average Humidity 66    
Maximum Humidity 86    
Minimum Humidity 44    
Precipitation  
Precipitation 0.00 in - - ()
Sea Level Pressure  
Sea Level Pressure 30.09 in    
Wind  
Wind Speed 10 mph ()    
Max Wind Speed 16 mph    
Max Gust Speed -    
Visibility 6.2 miles    
Events      
T = Trace of Precipitation, MM = Missing Value Source: Averaged Metar Reports

Daily Weather History Graph

Daily Weather History Graph

Search for Another Location

Airport or City:

Trip Planner

Search our weather history database for the weather conditions in past years. The results will help you decide how hot, cold, wet, or windy it might be!

Date:

Astronomy

Mar. 16, 2013 Rise Set
Actual Time 6:00 AM CET 5:57 PM CET
Civil Twilight 5:30 AM CET 6:27 PM CET
Nautical Twilight 4:55 AM CET 7:03 PM CET
Astronomical Twilight 4:18 AM CET 7:39 PM CET
Moon 7:59 AM CET (3/16) 11:10 PM CET (3/16)
Length of Visible Light 12h 56m
Length of Day
11h 56m
Waxing Crescent, 21% of the Moon is Illuminated
Mar 16
Waxing Crescent
Mar 19
First Quarter
Mar 27
Full
Apr 3
Last Quarter
Apr 10
New

Hourly Weather History & Observations

Time (CET) Temp. Windchill Dew Point Humidity Pressure Visibility Wind Dir Wind Speed Gust Speed Precip Events Conditions
12:15 AM 26.6 °F 14.4 °F 17.6 °F 69% 29.98 in - NNW 15.7 mph - N/A   Clear
12:45 AM 26.6 °F 15.3 °F 17.6 °F 69% 29.98 in - NNW 13.4 mph - N/A   Clear
1:15 AM 26.6 °F 15.3 °F 17.6 °F 69% 30.01 in - NNW 13.4 mph - N/A   Clear
1:45 AM 24.8 °F 13.1 °F 17.6 °F 74% 30.01 in - North 13.4 mph - N/A   Clear
2:15 AM 24.8 °F 13.1 °F 17.6 °F 74% 30.01 in - NNW 13.4 mph - N/A   Clear
2:45 AM 24.8 °F 14.2 °F 17.6 °F 74% 30.01 in - NNW 11.2 mph - N/A   Clear
3:15 AM 23.0 °F 13.2 °F 17.6 °F 80% 30.04 in - NW 8.9 mph - N/A   Clear
3:45 AM 23.0 °F 11.9 °F 17.6 °F 80% 30.04 in - NW 11.2 mph - N/A   Clear
4:15 AM 23.0 °F 11.9 °F 17.6 °F 80% 30.04 in - NW 11.2 mph - N/A   Clear
4:45 AM 23.0 °F 11.9 °F 17.6 °F 80% 30.04 in - NW 11.2 mph - N/A   Clear
5:15 AM 23.0 °F 11.9 °F 17.6 °F 80% 30.06 in - NW 11.2 mph - N/A   Clear
5:45 AM - - - N/A% - 6.2 mi NNW 13.4 mph - N/A   Clear
6:15 AM 21.2 °F 11.0 °F 15.8 °F 80% 30.09 in - North 8.9 mph - N/A   Clear
6:45 AM 19.4 °F 10.6 °F 15.8 °F 86% 30.09 in - NNW 6.7 mph - N/A   Clear
7:15 AM 23.0 °F 13.2 °F 17.6 °F 80% 30.09 in - NNW 8.9 mph - N/A   Clear
7:45 AM 24.8 °F 13.1 °F 19.4 °F 80% 30.12 in - NNW 13.4 mph - N/A   Clear
8:15 AM 26.6 °F 16.4 °F 19.4 °F 74% 30.12 in - NNW 11.2 mph - N/A   Clear
8:45 AM - - - N/A% - 6.2 mi NNW 13.4 mph - N/A   Clear
9:15 AM 28.4 °F 17.6 °F 19.4 °F 69% 30.12 in - North 13.4 mph - N/A   Clear
9:45 AM 30.2 °F 19.9 °F 21.2 °F 69% 30.12 in - NNW 13.4 mph - N/A   Clear
10:15 AM 30.2 °F 19.1 °F 19.4 °F 64% 30.12 in 6.2 mi NNW 15.7 mph - N/A   Partly Cloudy
10:45 AM 32.0 °F 21.4 °F 19.4 °F 60% 30.12 in 6.2 mi NW 15.7 mph - N/A   Scattered Clouds
11:15 AM 32.0 °F 22.2 °F 17.6 °F 55% 30.12 in 6.2 mi North 13.4 mph - N/A   Mostly Cloudy
11:19 AM 32.0 °F 21.4 °F 17.6 °F 55% 30.12 in 6.2 mi NW 15.7 mph - N/A   Mostly Cloudy
11:45 AM - - - N/A% - 6.2 mi NNW 13.4 mph - N/A   Overcast
12:45 PM 33.8 °F 23.7 °F 15.8 °F 48% 30.12 in - North 15.7 mph - N/A   Clear
1:15 PM 33.8 °F 25.4 °F 14.0 °F 44% 30.12 in - North 11.2 mph - N/A   Clear
1:45 PM 32.0 °F 21.4 °F 17.6 °F 55% 30.12 in - North 15.7 mph - N/A   Clear
2:15 PM 32.0 °F 23.2 °F 17.6 °F 55% 30.09 in - North 11.2 mph - N/A   Clear
2:45 PM - - - N/A% - - North 11.2 mph - N/A   Overcast
3:15 PM 33.8 °F 26.5 °F 17.6 °F 52% 30.09 in - North 8.9 mph - N/A   Clear
3:45 PM 33.8 °F 26.5 °F 15.8 °F 48% 30.09 in - NNW 8.9 mph - N/A   Clear
4:15 PM 33.8 °F 26.5 °F 14.0 °F 44% 30.09 in - NNE 8.9 mph - N/A   Clear
4:45 PM 33.8 °F 26.5 °F 14.0 °F 44% 30.09 in - NNE 8.9 mph - N/A   Clear
5:15 PM 33.8 °F 29.7 °F 14.0 °F 44% 30.09 in - North 4.5 mph - N/A   Clear
5:45 PM - - - N/A% - - North 6.7 mph - N/A   Clear
6:15 PM 30.2 °F - 14.0 °F 51% 30.12 in - NNE 2.2 mph - N/A   Clear
6:45 PM 28.4 °F - 14.0 °F 55% 30.12 in - Calm Calm - N/A   Clear
7:15 PM 28.4 °F - 17.6 °F 64% 30.12 in - ESE 2.2 mph - N/A   Clear
7:45 PM 28.4 °F 23.4 °F 17.6 °F 64% 30.12 in - SE 4.5 mph - N/A   Clear
8:15 PM 26.6 °F 21.3 °F 15.8 °F 64% 30.12 in - SE 4.5 mph - N/A   Clear
8:45 PM - - - N/A% - - SE 6.7 mph - N/A   Clear
9:15 PM 24.8 °F 19.2 °F 17.6 °F 74% 30.12 in - SSE 4.5 mph - N/A   Clear
9:45 PM 24.8 °F 19.2 °F 17.6 °F 74% 30.15 in - ESE 4.5 mph - N/A   Clear
10:15 PM 24.8 °F - 15.8 °F 69% 30.15 in - SE 2.2 mph - N/A   Clear
10:45 PM 24.8 °F 19.2 °F 14.0 °F 64% 30.12 in - SE 4.5 mph - N/A   Clear
11:15 PM 23.0 °F 17.1 °F 14.0 °F 68% 30.12 in - East 4.5 mph - N/A   Clear
11:45 PM 21.2 °F - 17.6 °F 86% 30.12 in - SE 2.2 mph - N/A   Clear